Tian Lian 2-04

operational
NORAD ID: 63361 Int'l Des: 2025-062 Owner: CAST Country: CN
HEOCIRCULARGSO

About Tian Lian 2-04

Description loading...

Live Position

Loading 3D Globe...

Upcoming Passes

Altitude History

Altitude vs Time

uPlot chart will show altitude changes over time

Two-Line Element Set

1 63361U 25062A 25314.97298324 -.00000144 00000-0 00000-0 0 9993
2 63361 4.9371 277.4459 0035257 359.1648 204.0269 1.00269742 2412
Epoch: Nov 10, 2025 • Age: 32 hours

Current Status

Altitude 35655.1 km
Velocity 3.08 km/s
Sub-Earth Point -2.36°S, 79.86°E
Launch Date Mar 26, 2025
Age 0.6 years
Type other

Technical Details

Classification Payload
Mass 5000.00 kg
Dry Mass 2000.00 kg
Total Mass 5000.00 kg
Length 6.00 m
Diameter 2.50 m
Span 20.00 m
Shape Box + 2 Pan + Dish
Manufacturer CAST
Bus Type DFH-4
Phase Status In Orbit
Owner/State CAST/CN

Large Constellations

Loading constellations...